FW4639 Weather Reports


time (UTC)temp
F
wind
direction
speed
knots
gust
knots
rain 1hr
in
rain 24hr
in
rain mn
in
humidity
%
barometer
mb
20260503054542 44 89 0.0 0.0 0.00 0.14 0.00 96 1015.9
20260503053036 44 91 0.0 0.0 0.00 0.14 0.00 96 1016.0
20260503051535 45 91 0.0 0.0 0.00 0.14 0.00 96 1015.8
20260503050031 46 91 0.0 0.0 0.00 0.14 0.00 96 1015.8
20260503044536 46 91 0.0 0.0 0.00 0.14 0.00 96 1015.9
20260503043028 47 91 0.0 0.0 0.00 0.14 0.00 96 1015.9
20260503041527 47 91 0.0 0.0 0.00 0.14 0.00 96 1015.8
20260503040028 47 91 0.0 0.0 0.00 0.14 0.00 95 1015.7
20260503034523 47 91 0.0 0.0 0.00 0.14 0.14 95 1015.5
20260503033021 48 91 0.0 0.0 0.00 0.14 0.14 95 1015.5
20260503031519 48 91 0.0 0.0 0.00 0.14 0.14 95 1015.4
20260503030017 48 91 0.0 0.0 0.00 0.14 0.14 95 1015.1
20260503024517 48 91 0.0 0.0 0.00 0.14 0.14 94 1015.3
20260503023015 48 91 0.0 0.0 0.00 0.14 0.14 94 1015.0
20260503021513 49 91 0.0 0.0 0.00 0.14 0.14 94 1014.9
20260503020013 49 91 0.0 0.0 0.00 0.14 0.14 94 1014.8
20260503014511 49 91 0.0 0.0 0.00 0.14 0.14 93 1015.1
20260503013010 49 91 0.0 0.0 0.00 0.14 0.14 93 1014.9
20260503011509 50 91 0.0 0.0 0.00 0.14 0.14 92 1014.7
20260503010011 50 91 0.0 0.0 0.00 0.14 0.14 91 1014.3
20260503004505 51 91 0.0 0.0 0.00 0.14 0.14 90 1014.0
20260503003004 51 91 0.0 0.0 0.00 0.14 0.14 89 1013.7
20260503001503 52 91 0.0 0.0 0.00 0.14 0.14 89 1013.5
20260503000002 53 91 0.0 0.0 0.00 0.14 0.14 88 1013.4
20260502234501 54 91 0.0 0.0 0.00 0.14 0.14 88 1013.1
20260502233002 54 91 0.0 0.0 0.00 0.14 0.14 87 1012.8
20260502231604 54 91 0.0 0.0 0.00 0.14 0.14 88 1012.9
20260502230100 54 91 0.0 0.0 0.00 0.14 0.14 87 1012.7
20260502224612 55 91 0.0 0.0 0.00 0.14 0.14 87 1012.6
20260502223059 55 91 0.0 0.0 0.00 0.14 0.14 87 1012.7
20260502221600 55 91 0.0 0.0 0.00 0.14 0.14 86 1012.6
20260502220058 55 91 0.0 0.0 0.00 0.14 0.14 86 1012.6
20260502214624 55 91 0.0 0.0 0.00 0.14 0.14 85 1012.5
20260502213059 55 88 0.0 0.9 0.00 0.14 0.14 84 1012.4
20260502211604 56 294 0.0 0.0 0.00 0.14 0.14 84 1012.5
20260502210056 56 294 0.0 0.0 0.00 0.14 0.14 83 1012.3
20260502204555 56 294 0.0 0.0 0.00 0.15 0.14 81 1012.4
20260502203106 57 307 0.0 0.0 0.00 0.15 0.14 80 1012.4
20260502201605 56 307 0.0 1.7 0.00 0.15 0.14 80 1012.4
20260502200052 56 249 0.0 2.6 0.00 0.15 0.14 81 1012.4
20260502194557 56 90 0.0 2.6 0.00 0.15 0.14 82 1012.5
20260502193051 56 249 0.0 2.6 0.00 0.15 0.14 83 1012.8
20260502191550 56 303 0.0 2.6 0.00 0.15 0.14 81 1013.1
20260502190049 56 224 0.0 2.6 0.00 0.15 0.14 83 1013.0
20260502184545 56 345 0.0 3.5 0.00 0.15 0.14 85 1013.2
20260502183043 55 128 0.0 0.9 0.00 0.15 0.14 88 1013.3
20260502181539 54 72 0.0 1.7 0.00 0.15 0.14 91 1013.4
20260502163035 52 22 0.0 3.5 0.02 0.15 0.14 95 1014.3
20260502161531 52 43 0.0 2.6 0.02 0.15 0.14 96 1014.6
20260502151530 52 11 0.0 3.5 0.02 0.13 0.12 95 1014.5
20260502123017 51 266 0.0 0.0 0.01 0.03 0.02 92 1013.7
20260502121515 52 266 0.0 2.6 0.01 0.03 0.02 92 1013.2
20260502114520 52 342 0.0 0.9 0.01 0.02 0.01 92 1013.4
20260502113016 52 334 0.0 0.0 0.01 0.02 0.01 92 1013.4
20260502111512 52 325 0.0 1.7 0.01 0.02 0.01 91 1013.4
20260502110015 52 307 0.0 1.7 0.00 0.01 0.00 91 1013.6
20260502104516 52 286 0.0 0.9 0.00 0.01 0.00 91 1013.6
20260502103010 53 305 0.0 1.7 0.00 0.01 0.00 91 1013.6
20260502101509 53 4 0.0 1.7 0.00 0.01 0.00 92 1013.7
20260502091506 52 330 0.0 0.0 0.00 0.01 0.00 93 1013.7
20260502070109 52 72 0.0 0.0 0.00 0.01 0.00 94 1012.6
20260502064620 52 72 0.0 0.0 0.00 0.01 0.00 94 1012.6